GLD1028 SBBV-SBUA

Flight info

Callsign GLD1028
Flight time 1h 47m
Altitude 26000
Route DCT ARVOT DCT DABOR DCT
Aircraft PC12/L-SDFGIRY/S

Departure

Time 2026-04-24 14:25
Airport Atlas Brasil Cantanhede International Airport (SBBV)

Arrival

Time 2026-04-24 16:12
Airport São Gabriel da Cachoeira Airport (SBUA)
Time Latitude Longitude Altitude Speed Heading
2026-04-24 14:15 2.84458 -60.68875 276 ft 0 kts 153°
2026-04-24 14:18 2.84453 -60.68872 276 ft 4 kts 148°
2026-04-24 14:18 2.84439 -60.68876 276 ft 4 kts 243°
2026-04-24 14:19 2.84419 -60.68944 276 ft 16 kts 259°
2026-04-24 14:19 2.84396 -60.69061 276 ft 14 kts 246°
2026-04-24 14:19 2.84352 -60.69147 276 ft 15 kts 243°
2026-04-24 14:19 2.84321 -60.69210 276 ft 9 kts 251°
2026-04-24 14:20 2.84322 -60.69277 276 ft 11 kts 250°
2026-04-24 14:20 2.84287 -60.69348 275 ft 12 kts 243°
2026-04-24 14:20 2.84246 -60.69427 275 ft 13 kts 242°
2026-04-24 14:20 2.84202 -60.69514 275 ft 14 kts 241°
2026-04-24 14:21 2.84155 -60.69604 275 ft 15 kts 243°
2026-04-24 14:21 2.84108 -60.69696 275 ft 15 kts 243°
2026-04-24 14:21 2.84059 -60.69793 275 ft 16 kts 243°
2026-04-24 14:21 2.84008 -60.69893 276 ft 16 kts 243°
2026-04-24 14:22 2.83964 -60.69976 276 ft 10 kts 242°
2026-04-24 14:22 2.83984 -60.70030 276 ft 11 kts 346°
2026-04-24 14:22 2.84003 -60.70036 276 ft 0 kts 336°
2026-04-24 14:23 2.84008 -60.70038 276 ft 6 kts 337°
2026-04-24 14:23 2.84074 -60.70073 277 ft 15 kts 353°
2026-04-24 14:23 2.84097 -60.70050 277 ft 0 kts 60°
2026-04-24 14:24 2.84152 -60.69943 276 ft 43 kts 65°
2026-04-24 14:24 2.84359 -60.69535 273 ft 84 kts 61°
2026-04-24 14:24 2.84655 -60.68970 400 ft 95 kts 63°
2026-04-24 14:25 2.84977 -60.68374 703 ft 100 kts 66°
2026-04-24 14:25 2.85316 -60.67749 968 ft 110 kts 65°
2026-04-24 14:25 2.85757 -60.67052 1237 ft 131 kts 44°
2026-04-24 14:25 2.86570 -60.66543 1588 ft 144 kts 30°
2026-04-24 14:26 2.87475 -60.66067 2020 ft 150 kts 30°
2026-04-24 14:26 2.88490 -60.65927 2488 ft 153 kts 343°
2026-04-24 14:26 2.89277 -60.66648 2932 ft 162 kts 297°
2026-04-24 14:26 2.89377 -60.67755 3423 ft 165 kts 255°
2026-04-24 14:27 2.88932 -60.68818 3859 ft 167 kts 244°
2026-04-24 14:27 2.88462 -60.69874 4340 ft 169 kts 248°
2026-04-24 14:27 2.88020 -60.70963 4820 ft 169 kts 249°
2026-04-24 14:27 2.87588 -60.72048 5335 ft 168 kts 249°
2026-04-24 14:28 2.87157 -60.73130 5828 ft 168 kts 249°
2026-04-24 14:28 2.86722 -60.74220 6286 ft 169 kts 249°
2026-04-24 14:28 2.86287 -60.75307 6739 ft 168 kts 249°
2026-04-24 14:28 2.85856 -60.76386 7188 ft 167 kts 248°
2026-04-24 14:29 2.85425 -60.77464 7625 ft 167 kts 248°
2026-04-24 14:29 2.84995 -60.78542 8063 ft 167 kts 248°
2026-04-24 14:29 2.84569 -60.79605 8548 ft 165 kts 248°
2026-04-24 14:29 2.84144 -60.80669 9088 ft 165 kts 248°
2026-04-24 14:30 2.83715 -60.81742 9550 ft 167 kts 248°
2026-04-24 14:30 2.83285 -60.82818 10074 ft 165 kts 248°
2026-04-24 14:30 2.82854 -60.83895 10489 ft 169 kts 248°
2026-04-24 14:30 2.82420 -60.84982 10953 ft 168 kts 249°
2026-04-24 14:31 2.81985 -60.86071 11405 ft 169 kts 249°
2026-04-24 14:31 2.81549 -60.87160 11802 ft 173 kts 249°
2026-04-24 14:31 2.81102 -60.88279 12245 ft 173 kts 249°
2026-04-24 14:31 2.80656 -60.89396 12694 ft 174 kts 249°
2026-04-24 14:32 2.80202 -60.90531 13131 ft 176 kts 249°
2026-04-24 14:32 2.79743 -60.91679 13597 ft 179 kts 249°
2026-04-24 14:32 2.79280 -60.92835 14039 ft 180 kts 249°
2026-04-24 14:32 2.78816 -60.93997 14470 ft 180 kts 250°
2026-04-24 14:33 2.78349 -60.95164 14890 ft 181 kts 250°
2026-04-24 14:33 2.77877 -60.96345 15280 ft 184 kts 249°
2026-04-24 14:33 2.77409 -60.97517 15711 ft 183 kts 250°
2026-04-24 14:33 2.76934 -60.98705 16119 ft 185 kts 250°
2026-04-24 14:34 2.76453 -60.99906 16501 ft 188 kts 250°
2026-04-24 14:34 2.75969 -61.01118 16895 ft 190 kts 249°
2026-04-24 14:34 2.75476 -61.02351 17300 ft 190 kts 250°
2026-04-24 14:34 2.74983 -61.03583 17686 ft 193 kts 249°
2026-04-24 14:35 2.74481 -61.04837 18069 ft 195 kts 249°
2026-04-24 14:35 2.73976 -61.06097 18435 ft 196 kts 249°
2026-04-24 14:35 2.73475 -61.07353 18771 ft 197 kts 249°
2026-04-24 14:35 2.72965 -61.08629 19095 ft 199 kts 249°
2026-04-24 14:36 2.72447 -61.09925 19419 ft 201 kts 249°
2026-04-24 14:36 2.71926 -61.11227 19758 ft 202 kts 249°
2026-04-24 14:36 2.71400 -61.12541 20074 ft 205 kts 249°
2026-04-24 14:36 2.70868 -61.13871 20383 ft 207 kts 249°
2026-04-24 14:37 2.70331 -61.15214 20708 ft 209 kts 249°
2026-04-24 14:37 2.69789 -61.16569 21025 ft 211 kts 249°
2026-04-24 14:37 2.69242 -61.17935 21348 ft 212 kts 248°
2026-04-24 14:37 2.68698 -61.19295 21659 ft 214 kts 248°
2026-04-24 14:38 2.68141 -61.20687 21968 ft 217 kts 248°
2026-04-24 14:38 2.67579 -61.22090 22304 ft 218 kts 249°
2026-04-24 14:38 2.67022 -61.23483 22730 ft 214 kts 249°
2026-04-24 14:38 2.66466 -61.24869 23065 ft 215 kts 249°
2026-04-24 14:39 2.65906 -61.26268 23371 ft 218 kts 249°
2026-04-24 14:39 2.65341 -61.27679 23683 ft 219 kts 248°
2026-04-24 14:39 2.64773 -61.29100 23952 ft 221 kts 248°
2026-04-24 14:39 2.64207 -61.30513 24222 ft 223 kts 248°
2026-04-24 14:40 2.63629 -61.31958 24495 ft 225 kts 248°
2026-04-24 14:40 2.63049 -61.33407 24695 ft 225 kts 248°
2026-04-24 14:40 2.62469 -61.34861 24786 ft 225 kts 248°
2026-04-24 14:40 2.61889 -61.36311 24871 ft 225 kts 248°
2026-04-24 14:41 2.61306 -61.37766 24948 ft 226 kts 248°
2026-04-24 14:41 2.60722 -61.39224 25034 ft 226 kts 248°
2026-04-24 14:41 2.60136 -61.40689 25118 ft 227 kts 248°
2026-04-24 14:41 2.59549 -61.42153 25205 ft 227 kts 248°
2026-04-24 14:42 2.58970 -61.43601 25271 ft 228 kts 248°
2026-04-24 14:42 2.58378 -61.45077 25357 ft 229 kts 248°
2026-04-24 14:42 2.57785 -61.46558 25438 ft 230 kts 248°
2026-04-24 14:42 2.57190 -61.48044 25511 ft 230 kts 248°
2026-04-24 14:43 2.56596 -61.49529 25603 ft 230 kts 248°
2026-04-24 14:43 2.55998 -61.51021 25671 ft 231 kts 248°
2026-04-24 14:43 2.55402 -61.52509 25764 ft 231 kts 248°
2026-04-24 14:43 2.54805 -61.54000 25837 ft 232 kts 248°
2026-04-24 14:44 2.54210 -61.55483 25906 ft 233 kts 248°
2026-04-24 14:44 2.53608 -61.56986 25988 ft 233 kts 248°
2026-04-24 14:44 2.52999 -61.58506 25984 ft 237 kts 248°
2026-04-24 14:44 2.52382 -61.60048 25987 ft 241 kts 248°
2026-04-24 14:45 2.51757 -61.61610 25987 ft 244 kts 248°
2026-04-24 14:45 2.51123 -61.63190 25989 ft 246 kts 248°
2026-04-24 14:45 2.50486 -61.64782 25989 ft 247 kts 248°
2026-04-24 14:45 2.49845 -61.66382 25990 ft 249 kts 248°
2026-04-24 14:46 2.49208 -61.67969 25991 ft 250 kts 248°
2026-04-24 14:46 2.48561 -61.69585 25992 ft 251 kts 248°
2026-04-24 14:46 2.47911 -61.71206 25992 ft 251 kts 248°
2026-04-24 14:46 2.47261 -61.72830 25992 ft 252 kts 248°
2026-04-24 14:47 2.46607 -61.74460 25991 ft 254 kts 248°
2026-04-24 14:47 2.45942 -61.76118 25994 ft 261 kts 248°
2026-04-24 14:47 2.45258 -61.77823 25997 ft 267 kts 248°
2026-04-24 14:47 2.44561 -61.79564 25997 ft 272 kts 248°
2026-04-24 14:48 2.43853 -61.81331 25998 ft 276 kts 248°
2026-04-24 14:48 2.43146 -61.83094 25999 ft 278 kts 248°
2026-04-24 14:48 2.42425 -61.84893 26000 ft 280 kts 248°
2026-04-24 14:48 2.41700 -61.86702 26000 ft 281 kts 248°
2026-04-24 14:49 2.40971 -61.88520 26000 ft 282 kts 248°
2026-04-24 14:49 2.40239 -61.90346 25998 ft 283 kts 248°
2026-04-24 14:49 2.39506 -61.92175 25996 ft 284 kts 248°
2026-04-24 14:49 2.38771 -61.94007 25992 ft 284 kts 248°
2026-04-24 14:50 2.38034 -61.95844 25990 ft 284 kts 248°
2026-04-24 14:50 2.37298 -61.97681 25990 ft 285 kts 248°
2026-04-24 14:50 2.36570 -61.99497 25990 ft 285 kts 248°
2026-04-24 14:50 2.35831 -62.01338 25992 ft 285 kts 248°
2026-04-24 14:51 2.35093 -62.03180 25993 ft 285 kts 248°
2026-04-24 14:51 2.34355 -62.05019 25993 ft 285 kts 248°
2026-04-24 14:51 2.33617 -62.06859 25992 ft 285 kts 248°
2026-04-24 14:51 2.32879 -62.08698 25992 ft 285 kts 248°
2026-04-24 14:52 2.32140 -62.10541 25993 ft 285 kts 247°
2026-04-24 14:52 2.31403 -62.12378 25993 ft 285 kts 248°
2026-04-24 14:52 2.30674 -62.14197 25993 ft 285 kts 248°
2026-04-24 14:52 2.29938 -62.16032 25994 ft 285 kts 248°
2026-04-24 14:53 2.29201 -62.17870 25992 ft 285 kts 248°
2026-04-24 14:53 2.28462 -62.19708 25992 ft 285 kts 248°
2026-04-24 14:53 2.27725 -62.21543 25992 ft 285 kts 247°
2026-04-24 14:53 2.26987 -62.23385 25990 ft 285 kts 248°
2026-04-24 14:54 2.26250 -62.25221 25991 ft 284 kts 248°
2026-04-24 14:54 2.25514 -62.27054 25991 ft 284 kts 248°
2026-04-24 14:54 2.24778 -62.28887 25991 ft 284 kts 248°
2026-04-24 14:54 2.24044 -62.30722 25990 ft 284 kts 248°
2026-04-24 14:55 2.23556 -62.31938 25990 ft 285 kts 248°
2026-04-24 14:55 2.22581 -62.34367 25991 ft 284 kts 248°
2026-04-24 14:55 2.21843 -62.36200 25991 ft 284 kts 248°
2026-04-24 14:55 2.21085 -62.38024 25991 ft 283 kts 243°
2026-04-24 14:56 2.20086 -62.39710 25992 ft 282 kts 237°
2026-04-24 14:56 2.19058 -62.41384 25994 ft 282 kts 238°
2026-04-24 14:56 2.18043 -62.43062 25995 ft 283 kts 238°
2026-04-24 14:56 2.17027 -62.44746 25996 ft 283 kts 238°
2026-04-24 14:57 2.16019 -62.46404 25990 ft 283 kts 238°
2026-04-24 14:57 2.14998 -62.48083 25991 ft 283 kts 238°
2026-04-24 14:57 2.13975 -62.49768 25990 ft 283 kts 238°
2026-04-24 14:57 2.12952 -62.51452 25990 ft 283 kts 238°
2026-04-24 14:58 2.11930 -62.53135 25992 ft 283 kts 238°
2026-04-24 14:58 2.10909 -62.54817 25991 ft 283 kts 238°
2026-04-24 14:58 2.09887 -62.56498 25991 ft 283 kts 238°
2026-04-24 14:58 2.08864 -62.58182 25992 ft 283 kts 238°
2026-04-24 14:59 2.07852 -62.59847 25992 ft 283 kts 238°
2026-04-24 14:59 2.06830 -62.61528 25992 ft 284 kts 238°
2026-04-24 14:59 2.05807 -62.63212 25992 ft 283 kts 238°
2026-04-24 14:59 2.04782 -62.64898 25995 ft 283 kts 238°
2026-04-24 15:00 2.03760 -62.66581 25994 ft 284 kts 238°
2026-04-24 15:00 2.02735 -62.68267 25991 ft 284 kts 238°
2026-04-24 15:00 2.01710 -62.69953 25992 ft 283 kts 238°
2026-04-24 15:00 2.00688 -62.71636 25992 ft 283 kts 238°
2026-04-24 15:01 1.99678 -62.73297 25993 ft 283 kts 238°
2026-04-24 15:01 1.98656 -62.74978 25992 ft 283 kts 238°
2026-04-24 15:01 1.97632 -62.76663 25991 ft 284 kts 238°
2026-04-24 15:01 1.96607 -62.78348 25991 ft 284 kts 238°
2026-04-24 15:02 1.95586 -62.80029 25993 ft 283 kts 238°
2026-04-24 15:02 1.94561 -62.81715 25992 ft 283 kts 238°
2026-04-24 15:02 1.93540 -62.83395 25993 ft 283 kts 238°
2026-04-24 15:02 1.92514 -62.85082 25994 ft 284 kts 238°
2026-04-24 15:03 1.91491 -62.86764 25993 ft 284 kts 238°
2026-04-24 15:03 1.90480 -62.88427 25993 ft 283 kts 238°
2026-04-24 15:03 1.89457 -62.90111 25992 ft 284 kts 238°
2026-04-24 15:03 1.88433 -62.91793 25991 ft 284 kts 238°
2026-04-24 15:04 1.87407 -62.93479 25988 ft 284 kts 238°
2026-04-24 15:04 1.86383 -62.95164 25988 ft 284 kts 238°
2026-04-24 15:04 1.85360 -62.96850 25988 ft 284 kts 238°
2026-04-24 15:04 1.84335 -62.98535 25987 ft 284 kts 238°
2026-04-24 15:05 1.83324 -63.00196 25991 ft 284 kts 238°
2026-04-24 15:05 1.82299 -63.01880 25992 ft 284 kts 238°
2026-04-24 15:05 1.81272 -63.03568 25992 ft 284 kts 238°
2026-04-24 15:05 1.80248 -63.05252 25993 ft 283 kts 238°
2026-04-24 15:06 1.79225 -63.06935 25996 ft 283 kts 238°
2026-04-24 15:06 1.78202 -63.08620 25996 ft 284 kts 238°
2026-04-24 15:06 1.77178 -63.10304 25996 ft 284 kts 238°
2026-04-24 15:06 1.76152 -63.11991 25987 ft 284 kts 238°
2026-04-24 15:07 1.75126 -63.13675 25983 ft 284 kts 238°
2026-04-24 15:07 1.74116 -63.15334 25983 ft 283 kts 238°
2026-04-24 15:07 1.73094 -63.17015 25983 ft 283 kts 238°
2026-04-24 15:07 1.72071 -63.18701 25983 ft 283 kts 238°
2026-04-24 15:08 1.71048 -63.20383 25985 ft 283 kts 238°
2026-04-24 15:08 1.70023 -63.22066 25987 ft 283 kts 238°
2026-04-24 15:08 1.69000 -63.23745 25987 ft 282 kts 238°
2026-04-24 15:08 1.67980 -63.25423 25986 ft 282 kts 238°
2026-04-24 15:09 1.66963 -63.27095 25985 ft 282 kts 238°
2026-04-24 15:09 1.65945 -63.28768 25985 ft 282 kts 238°
2026-04-24 15:09 1.64940 -63.30420 25985 ft 281 kts 238°
2026-04-24 15:09 1.63925 -63.32091 25985 ft 281 kts 238°
2026-04-24 15:10 1.62909 -63.33762 25985 ft 281 kts 238°
2026-04-24 15:10 1.61893 -63.35429 25984 ft 281 kts 238°
2026-04-24 15:10 1.60876 -63.37098 25984 ft 281 kts 238°
2026-04-24 15:10 1.59860 -63.38771 25988 ft 281 kts 238°
2026-04-24 15:11 1.58848 -63.40436 25988 ft 281 kts 238°
2026-04-24 15:11 1.57831 -63.42107 25988 ft 281 kts 238°
2026-04-24 15:11 1.56828 -63.43753 25987 ft 281 kts 237°
2026-04-24 15:11 1.55812 -63.45422 25988 ft 281 kts 238°
2026-04-24 15:12 1.54798 -63.47090 25985 ft 281 kts 238°
2026-04-24 15:12 1.52765 -63.50432 25988 ft 281 kts 238°
2026-04-24 15:12 1.51750 -63.52099 25988 ft 281 kts 238°
2026-04-24 15:13 1.50735 -63.53765 25987 ft 281 kts 238°
2026-04-24 15:13 1.49719 -63.55435 25990 ft 281 kts 238°
2026-04-24 15:13 1.48704 -63.57104 25991 ft 281 kts 238°
2026-04-24 15:13 1.47702 -63.58752 25990 ft 281 kts 237°
2026-04-24 15:14 1.46686 -63.60421 25991 ft 281 kts 238°
2026-04-24 15:14 1.45670 -63.62087 25993 ft 281 kts 238°
2026-04-24 15:14 1.44653 -63.63759 25994 ft 281 kts 237°
2026-04-24 15:14 1.43639 -63.65426 25993 ft 281 kts 238°
2026-04-24 15:15 1.42623 -63.67097 25994 ft 281 kts 238°
2026-04-24 15:15 1.41606 -63.68766 25994 ft 281 kts 237°
2026-04-24 15:15 1.40590 -63.70435 25995 ft 282 kts 238°
2026-04-24 15:15 1.39574 -63.72103 25994 ft 282 kts 238°
2026-04-24 15:16 1.38568 -63.73757 25991 ft 281 kts 238°
2026-04-24 15:16 1.37550 -63.75427 25992 ft 281 kts 238°
2026-04-24 15:16 1.36534 -63.77097 25994 ft 282 kts 238°
2026-04-24 15:16 1.35511 -63.78780 25994 ft 283 kts 238°
2026-04-24 15:17 1.34486 -63.80464 25994 ft 284 kts 238°
2026-04-24 15:17 1.33454 -63.82157 25995 ft 285 kts 238°
2026-04-24 15:17 1.32423 -63.83848 25994 ft 285 kts 238°
2026-04-24 15:17 1.31393 -63.85542 25994 ft 285 kts 238°
2026-04-24 15:18 1.30376 -63.87213 25995 ft 285 kts 238°
2026-04-24 15:18 1.29346 -63.88908 25993 ft 286 kts 238°
2026-04-24 15:18 1.28312 -63.90605 25993 ft 286 kts 238°
2026-04-24 15:18 1.27278 -63.92300 25993 ft 286 kts 238°
2026-04-24 15:19 1.26245 -63.93995 25991 ft 286 kts 238°
2026-04-24 15:19 1.25213 -63.95692 25989 ft 286 kts 238°
2026-04-24 15:19 1.24181 -63.97387 25990 ft 286 kts 238°
2026-04-24 15:19 1.23149 -63.99082 25987 ft 285 kts 238°
2026-04-24 15:20 1.22133 -64.00751 25988 ft 285 kts 238°
2026-04-24 15:20 1.21101 -64.02446 25987 ft 285 kts 238°
2026-04-24 15:20 1.20071 -64.04137 25987 ft 285 kts 238°
2026-04-24 15:20 1.19040 -64.05829 25989 ft 285 kts 238°
2026-04-24 15:21 1.18012 -64.07518 25987 ft 285 kts 238°
2026-04-24 15:21 1.16982 -64.09208 25988 ft 285 kts 238°
2026-04-24 15:21 1.15954 -64.10898 25987 ft 284 kts 238°
2026-04-24 15:21 1.14925 -64.12587 25985 ft 284 kts 238°
2026-04-24 15:22 1.13897 -64.14275 25986 ft 284 kts 238°
2026-04-24 15:22 1.12882 -64.15941 25986 ft 284 kts 238°
2026-04-24 15:22 1.11856 -64.17626 25986 ft 284 kts 238°
2026-04-24 15:23 1.09803 -64.20997 25980 ft 284 kts 238°
2026-04-24 15:23 1.07750 -64.24367 25979 ft 284 kts 238°
2026-04-24 15:23 1.06724 -64.26053 25980 ft 284 kts 238°
2026-04-24 15:24 1.03661 -64.31081 25977 ft 284 kts 238°
2026-04-24 15:25 1.01959 -64.33875 25977 ft 285 kts 238°
2026-04-24 15:25 0.99537 -64.37852 25978 ft 286 kts 238°
2026-04-24 15:26 0.96442 -64.42933 25979 ft 287 kts 238°
2026-04-24 15:27 0.93327 -64.48046 25974 ft 287 kts 238°
2026-04-24 15:27 0.90218 -64.53150 25974 ft 287 kts 238°
2026-04-24 15:28 0.86088 -64.59928 25973 ft 286 kts 238°
2026-04-24 15:29 0.84018 -64.63326 25978 ft 286 kts 238°
2026-04-24 15:30 0.80925 -64.68404 25976 ft 286 kts 238°
2026-04-24 15:31 0.76789 -64.75191 25975 ft 287 kts 238°
2026-04-24 15:32 0.72632 -64.82014 25977 ft 287 kts 238°
2026-04-24 15:33 0.68495 -64.88804 25975 ft 287 kts 237°
2026-04-24 15:33 0.65388 -64.93902 25975 ft 286 kts 237°
2026-04-24 15:34 0.63321 -64.97293 25978 ft 286 kts 238°
2026-04-24 15:35 0.60237 -65.02355 25975 ft 285 kts 238°
2026-04-24 15:35 0.58173 -65.05741 25975 ft 285 kts 238°
2026-04-24 15:35 0.57142 -65.07434 25975 ft 285 kts 238°
2026-04-24 15:36 0.56113 -65.09122 25979 ft 285 kts 237°
2026-04-24 15:36 0.54050 -65.12507 25982 ft 285 kts 238°
2026-04-24 15:36 0.53032 -65.14177 25982 ft 285 kts 238°
2026-04-24 15:37 0.52002 -65.15867 25980 ft 285 kts 238°
2026-04-24 15:37 0.50971 -65.17559 25980 ft 285 kts 238°
2026-04-24 15:37 0.49943 -65.19246 25980 ft 285 kts 238°
2026-04-24 15:37 0.48912 -65.20939 25779 ft 282 kts 238°
2026-04-24 15:38 0.47905 -65.22596 25545 ft 276 kts 238°
2026-04-24 15:38 0.46917 -65.24218 25326 ft 271 kts 237°
2026-04-24 15:38 0.45941 -65.25817 25098 ft 268 kts 238°
2026-04-24 15:38 0.44973 -65.27403 24873 ft 266 kts 237°
2026-04-24 15:39 0.44026 -65.28956 24650 ft 265 kts 238°
2026-04-24 15:39 0.43074 -65.30520 24426 ft 262 kts 238°
2026-04-24 15:39 0.42127 -65.32072 24207 ft 261 kts 238°
2026-04-24 15:39 0.41189 -65.33611 23984 ft 259 kts 238°
2026-04-24 15:40 0.40254 -65.35144 23771 ft 258 kts 238°
2026-04-24 15:40 0.39325 -65.36669 23553 ft 256 kts 238°
2026-04-24 15:40 0.38401 -65.38185 23300 ft 255 kts 238°
2026-04-24 15:40 0.37480 -65.39696 23037 ft 254 kts 238°
2026-04-24 15:41 0.36577 -65.41178 22791 ft 252 kts 238°
2026-04-24 15:41 0.35667 -65.42671 22536 ft 251 kts 238°
2026-04-24 15:41 0.34761 -65.44157 22284 ft 250 kts 238°
2026-04-24 15:41 0.33857 -65.45641 22032 ft 250 kts 238°
2026-04-24 15:42 0.32954 -65.47124 21782 ft 249 kts 238°
2026-04-24 15:42 0.32054 -65.48600 21531 ft 249 kts 238°
2026-04-24 15:42 0.31157 -65.50073 21280 ft 248 kts 238°
2026-04-24 15:42 0.30262 -65.51540 21060 ft 247 kts 238°
2026-04-24 15:43 0.29368 -65.53008 20814 ft 247 kts 238°
2026-04-24 15:43 0.28487 -65.54452 20577 ft 246 kts 238°
2026-04-24 15:43 0.27599 -65.55909 20339 ft 246 kts 238°
2026-04-24 15:43 0.26711 -65.57367 20103 ft 245 kts 238°
2026-04-24 15:44 0.25826 -65.58818 19874 ft 244 kts 238°
2026-04-24 15:44 0.24942 -65.60268 19644 ft 244 kts 238°
2026-04-24 15:44 0.24062 -65.61712 19417 ft 243 kts 239°
2026-04-24 15:44 0.23182 -65.63153 19190 ft 243 kts 239°
2026-04-24 15:45 0.22306 -65.64590 18966 ft 242 kts 239°
2026-04-24 15:45 0.21433 -65.66023 18743 ft 241 kts 239°
2026-04-24 15:45 0.20572 -65.67435 18524 ft 241 kts 239°
2026-04-24 15:45 0.19702 -65.68861 18308 ft 240 kts 239°
2026-04-24 15:46 0.18834 -65.70286 18057 ft 240 kts 239°
2026-04-24 15:46 0.17968 -65.71705 17801 ft 239 kts 239°
2026-04-24 15:46 0.17106 -65.73120 17549 ft 238 kts 239°
2026-04-24 15:46 0.16247 -65.74529 17298 ft 237 kts 239°
2026-04-24 15:47 0.15390 -65.75935 17044 ft 237 kts 239°
2026-04-24 15:47 0.14536 -65.77337 16796 ft 236 kts 239°
2026-04-24 15:47 0.13696 -65.78715 16550 ft 235 kts 239°
2026-04-24 15:47 0.12846 -65.80109 16310 ft 235 kts 239°
2026-04-24 15:48 0.11999 -65.81500 16078 ft 234 kts 239°
2026-04-24 15:48 0.11153 -65.82887 15833 ft 233 kts 239°
2026-04-24 15:48 0.10311 -65.84270 15592 ft 233 kts 240°
2026-04-24 15:48 0.09471 -65.85649 15360 ft 232 kts 239°
2026-04-24 15:49 0.08635 -65.87020 15129 ft 231 kts 239°
2026-04-24 15:49 0.07799 -65.88391 14896 ft 231 kts 239°
2026-04-24 15:49 0.06976 -65.89741 14669 ft 230 kts 240°
2026-04-24 15:49 0.06146 -65.91104 14441 ft 229 kts 239°
2026-04-24 15:50 0.05317 -65.92462 14211 ft 228 kts 240°
2026-04-24 15:50 0.04493 -65.93814 13989 ft 227 kts 239°
2026-04-24 15:50 0.03671 -65.95162 13762 ft 227 kts 239°
2026-04-24 15:50 0.02850 -65.96509 13518 ft 226 kts 239°
2026-04-24 15:51 0.02032 -65.97852 13253 ft 226 kts 239°
2026-04-24 15:51 0.01216 -65.99192 13001 ft 225 kts 239°
2026-04-24 15:51 0.00403 -66.00525 12753 ft 225 kts 239°
2026-04-24 15:51 -0.00398 -66.01839 12517 ft 224 kts 239°
2026-04-24 15:52 -0.01208 -66.03167 12270 ft 223 kts 239°
2026-04-24 15:52 -0.02014 -66.04490 12024 ft 223 kts 239°
2026-04-24 15:52 -0.02819 -66.05811 11782 ft 223 kts 239°
2026-04-24 15:52 -0.03627 -66.07135 11537 ft 222 kts 239°
2026-04-24 15:53 -0.04428 -66.08449 11302 ft 221 kts 239°
2026-04-24 15:53 -0.05226 -66.09759 11066 ft 220 kts 239°
2026-04-24 15:53 -0.06019 -66.11060 10830 ft 218 kts 239°
2026-04-24 15:53 -0.06796 -66.12336 10598 ft 217 kts 239°
2026-04-24 15:54 -0.07577 -66.13616 10369 ft 215 kts 239°
2026-04-24 15:54 -0.08354 -66.14892 10140 ft 214 kts 239°
2026-04-24 15:54 -0.09127 -66.16160 9912 ft 213 kts 239°
2026-04-24 15:54 -0.09895 -66.17419 9665 ft 212 kts 239°
2026-04-24 15:55 -0.10663 -66.18679 9412 ft 211 kts 239°
2026-04-24 15:55 -0.11426 -66.19931 9163 ft 211 kts 239°
2026-04-24 15:55 -0.12187 -66.21179 8907 ft 210 kts 239°
2026-04-24 15:55 -0.12796 -66.22495 8658 ft 209 kts 255°
2026-04-24 15:56 -0.12903 -66.23920 8414 ft 210 kts 274°
2026-04-24 15:56 -0.12693 -66.25360 8176 ft 209 kts 277°
2026-04-24 15:56 -0.12476 -66.26793 7935 ft 209 kts 277°
2026-04-24 15:56 -0.12264 -66.28232 7693 ft 209 kts 277°
2026-04-24 15:57 -0.12054 -66.29674 7455 ft 210 kts 276°
2026-04-24 15:57 -0.11844 -66.31113 7218 ft 209 kts 277°
2026-04-24 15:57 -0.11703 -66.32066 7063 ft 209 kts 277°
2026-04-24 15:57 -0.11419 -66.33990 6751 ft 209 kts 277°
2026-04-24 15:58 -0.11207 -66.35424 6514 ft 209 kts 277°
2026-04-24 15:58 -0.10995 -66.36862 6281 ft 209 kts 277°
2026-04-24 15:58 -0.10787 -66.38275 6039 ft 208 kts 277°
2026-04-24 15:58 -0.10575 -66.39709 5792 ft 208 kts 277°
2026-04-24 15:59 -0.10364 -66.41143 5549 ft 210 kts 277°
2026-04-24 15:59 -0.10149 -66.42596 5316 ft 213 kts 276°
2026-04-24 15:59 -0.09934 -66.44059 5068 ft 213 kts 276°
2026-04-24 15:59 -0.09719 -66.45516 4829 ft 211 kts 277°
2026-04-24 16:00 -0.09505 -66.46964 4584 ft 210 kts 277°
2026-04-24 16:00 -0.09293 -66.48403 4340 ft 210 kts 276°
2026-04-24 16:00 -0.09086 -66.49821 4094 ft 208 kts 276°
2026-04-24 16:00 -0.08876 -66.51247 3848 ft 208 kts 277°
2026-04-24 16:01 -0.08665 -66.52667 3613 ft 207 kts 277°
2026-04-24 16:01 -0.08455 -66.54088 3370 ft 206 kts 277°
2026-04-24 16:01 -0.08247 -66.55498 3215 ft 202 kts 277°
2026-04-24 16:01 -0.08048 -66.56852 3169 ft 193 kts 277°
2026-04-24 16:02 -0.07856 -66.58158 3118 ft 188 kts 276°
2026-04-24 16:02 -0.07668 -66.59437 3071 ft 184 kts 277°
2026-04-24 16:02 -0.07482 -66.60692 3024 ft 180 kts 277°
2026-04-24 16:02 -0.07302 -66.61913 2973 ft 175 kts 276°
2026-04-24 16:03 -0.07129 -66.63083 2918 ft 170 kts 277°
2026-04-24 16:03 -0.06961 -66.64225 2859 ft 163 kts 276°
2026-04-24 16:03 -0.06798 -66.65330 2819 ft 159 kts 276°
2026-04-24 16:03 -0.06640 -66.66411 2771 ft 156 kts 276°
2026-04-24 16:04 -0.06483 -66.67478 2725 ft 155 kts 276°
2026-04-24 16:04 -0.06327 -66.68539 2674 ft 154 kts 275°
2026-04-24 16:04 -0.06172 -66.69598 2696 ft 158 kts 276°
2026-04-24 16:04 -0.06004 -66.70767 2911 ft 185 kts 276°
2026-04-24 16:05 -0.05584 -66.73575 3314 ft 220 kts 277°
2026-04-24 16:05 -0.05356 -66.75115 3498 ft 226 kts 277°
2026-04-24 16:06 -0.04896 -66.78234 3886 ft 227 kts 277°
2026-04-24 16:06 -0.04447 -66.79755 3974 ft 233 kts 291°
2026-04-24 16:06 -0.03205 -66.82683 3722 ft 220 kts 291°
2026-04-24 16:07 -0.02645 -66.84052 3580 ft 211 kts 288°
2026-04-24 16:07 -0.02404 -66.85416 3376 ft 192 kts 268°
2026-04-24 16:07 -0.03124 -66.87752 2898 ft 166 kts 233°
2026-04-24 16:08 -0.03870 -66.88581 2656 ft 156 kts 218°
2026-04-24 16:08 -0.05390 -66.89961 2436 ft 139 kts 219°
2026-04-24 16:09 -0.06780 -66.91227 2284 ft 133 kts 221°
2026-04-24 16:09 -0.07448 -66.91836 2216 ft 131 kts 219°
2026-04-24 16:09 -0.07902 -66.92249 2160 ft 131 kts 219°
2026-04-24 16:09 -0.08816 -66.93078 2000 ft 132 kts 220°
2026-04-24 16:10 -0.10700 -66.94775 1670 ft 90 kts 219°
2026-04-24 16:11 -0.11707 -66.95698 1064 ft 102 kts 219°
2026-04-24 16:11 -0.12222 -66.96157 915 ft 94 kts 218°
2026-04-24 16:11 -0.12697 -66.96576 790 ft 91 kts 219°
2026-04-24 16:12 -0.13614 -66.97438 447 ft 97 kts 238°
2026-04-24 16:12 -0.14104 -66.97882 273 ft 85 kts 223°
2026-04-24 16:12 -0.14509 -66.98248 257 ft 5 kts 230°
2026-04-24 16:13 -0.14566 -66.98305 258 ft 19 kts 217°
2026-04-24 16:13 -0.14783 -66.98497 257 ft 12 kts 222°
2026-04-24 16:14 -0.14945 -66.98646 257 ft 17 kts 222°
2026-04-24 16:14 -0.15030 -66.98723 258 ft 16 kts 223°
2026-04-24 16:14 -0.15170 -66.98850 259 ft 16 kts 222°
2026-04-24 16:15 -0.15254 -66.98926 259 ft 4 kts 220°
2026-04-24 16:16 -0.15309 -66.98965 259 ft 0 kts 210°
2026-04-24 16:17 -0.15310 -66.98965 259 ft 0 kts 202°
2026-04-24 16:17 -0.15336 -66.98978 259 ft 5 kts 214°
2026-04-24 16:18 -0.15453 -66.99101 257 ft 12 kts 232°
2026-04-24 16:18 -0.15418 -66.99209 258 ft 5 kts 322°
2026-04-24 16:18 -0.15396 -66.99235 258 ft 10 kts 240°
2026-04-24 16:19 -0.15408 -66.99234 259 ft 0 kts 84°
2026-04-24 16:20 -0.15396 -66.99240 258 ft 6 kts 297°
2026-04-24 16:20 -0.15387 -66.99291 259 ft 2 kts 244°
2026-04-24 16:20 -0.15401 -66.99300 259 ft 0 kts 176°
2026-04-24 16:21 -0.15410 -66.99299 259 ft 0 kts 162°